This is the latest recevied weather packets stored in our database for station/object IN3XSV-13. If no packets are shown the sender has not sent any weather packets the latest 10 day(s).
| Time | Temp. | Humidity | Pressure | Rain* | Wind** | Luminosity | Snow |
|---|---|---|---|---|---|---|---|
| 1777829333 | 21.11° C | 39% | 9955.2 hPa | 0 mm | - | - | - |
| 1777829033 | 21.11° C | 38% | 9955.3 hPa | 0 mm | - | - | - |
| 1777828733 | 21.11° C | 38% | 9955.2 hPa | 0 mm | - | - | - |
| 1777828433 | 21.67° C | 38% | 9955.2 hPa | 0 mm | - | - | - |
| 1777828133 | 21.67° C | 38% | 9955.1 hPa | 0 mm | - | - | - |
| 1777827833 | 21.67° C | 38% | 9955 hPa | 0 mm | - | - | - |
| 1777827533 | 21.67° C | 38% | 9955.3 hPa | 0 mm | - | - | - |
| 1777827233 | 21.67° C | 38% | 9955.2 hPa | 0 mm | - | - | - |
| 1777826933 | 22.22° C | 38% | 9955.2 hPa | 0 mm | - | - | - |
| 1777826633 | 22.22° C | 37% | 9955.3 hPa | 0 mm | - | - | - |
| 1777826333 | 22.78° C | 37% | 9955.3 hPa | 0 mm | - | - | - |
| 1777826033 | 22.78° C | 37% | 9955.3 hPa | 0 mm | - | - | - |
| 1777825733 | 22.78° C | 37% | 9955.4 hPa | 0 mm | - | - | - |
| 1777825433 | 22.78° C | 37% | 9955.1 hPa | 0 mm | - | - | - |
| 1777825133 | 22.78° C | 37% | 9955.2 hPa | 0 mm | - | - | - |
| 1777824833 | 22.78° C | 37% | 9955.1 hPa | 0 mm | - | - | - |
| 1777824533 | 22.78° C | 37% | 9955.2 hPa | 0 mm | - | - | - |
| 1777824233 | 22.78° C | 37% | 9955.2 hPa | 2.03 mm | - | - | - |
| 1777823933 | 23.33° C | 37% | 9955.2 hPa | 8.64 mm | - | - | - |
| 1777823633 | 23.33° C | 37% | 9955.2 hPa | 10.67 mm | - | - | - |
| 1777823333 | 23.33° C | 37% | 9955.4 hPa | 15.49 mm | - | - | - |
| 1777823033 | 23.33° C | 37% | 9955.4 hPa | 17.02 mm | - | - | - |
| 1777822733 | 22.78° C | 37% | 9955.3 hPa | 18.03 mm | - | - | - |
| 1777822433 | 23.33° C | 37% | 9955.4 hPa | 23.11 mm | - | - | - |
| 1777822133 | 23.33° C | 37% | 9955.3 hPa | 24.13 mm | - | - | - |
* Rain latest hour (hover to see other rain measurements)
** Current wind speed in m/s (hover to see current wind gust speed)